Change the Weather History Date:

Wednesday, September 19, 2012

  Actual Average Record
Temperature  
Mean Temperature 68 °F 73 °F  
Max Temperature 72 °F 83 °F 99 °F (1954)
Min Temperature 64 °F 63 °F 48 °F (1959)
Degree Days  
Heating Degree Days 0 0  
Month to date heating degree days 0 0  
Since 1 July heating degree days 0 0  
Cooling Degree Days 3 8  
Month to date cooling degree days 217 198  
Year to date cooling degree days 1966 1838  
Growing Degree Days 18 (Base 50)    
Moisture  
Dew Point 62 °F    
Average Humidity 79    
Maximum Humidity 100    
Minimum Humidity 57    
Precipitation  
Precipitation 0.00 in 0.14 in 4.32 in (1928)
Month to date precipitation 1.33 2.83  
Year to date precipitation 33.06 34.26  
Sea Level Pressure  
Sea Level Pressure 29.97 in    
Wind  
Wind Speed 9 mph (North)    
Max Wind Speed 18 mph    
Max Gust Speed 24 mph    
Visibility 10 miles    
Events      
T = Trace of Precipitation, MM = Missing Value Source: NWS Daily Summary

Daily Weather History Graph

Daily Weather History Graph

Search for Another Location

Airport or City:

Trip Planner

Search our weather history database for the weather conditions in past years. The results will help you decide how hot, cold, wet, or windy it might be!

Date:

Astronomy

Sep. 19, 2012 Rise Set
Actual Time 7:01 AM EDT 7:15 PM EDT
Civil Twilight 6:36 AM EDT 7:41 PM EDT
Nautical Twilight 6:06 AM EDT 8:10 PM EDT
Astronomical Twilight 5:36 AM EDT 8:40 PM EDT
Moon 10:57 AM EDT (9/19) 9:36 PM EDT (9/19)
Length of Visible Light 13h 04m
Length of Day
12h 14m
Waxing Crescent, 17% of the Moon is Illuminated
Sep 19
Waxing Crescent
Sep 22
First Quarter
Sep 29
Full
Oct 8
Last Quarter
Oct 15
New

Hourly Weather History & Observations

Time (EDT) Temp. Dew Point Humidity Pressure Visibility Wind Dir Wind Speed Gust Speed Precip Events Conditions
12:53 AM 70.0 °F 69.1 °F 97% 29.83 in 10.0 mi SW 4.6 mph - N/A   Overcast
1:49 AM 69.8 °F 69.8 °F 100% 29.86 in 10.0 mi WNW 3.5 mph - N/A   Overcast
1:53 AM 70.0 °F 69.1 °F 97% 29.84 in 10.0 mi WNW 4.6 mph - N/A   Overcast
2:03 AM 69.8 °F 69.8 °F 100% 29.86 in 10.0 mi WSW 4.6 mph - N/A   Overcast
2:38 AM 71.6 °F 69.8 °F 94% 29.86 in 10.0 mi West 3.5 mph - N/A   Overcast
2:53 AM 71.1 °F 69.1 °F 93% 29.84 in 10.0 mi WNW 5.8 mph - N/A   Overcast
3:17 AM 69.8 °F 69.8 °F 100% 29.85 in 10.0 mi WNW 3.5 mph - N/A   Scattered Clouds
3:53 AM 70.0 °F 69.1 °F 97% 29.83 in 10.0 mi NNW 3.5 mph - N/A   Partly Cloudy
4:53 AM 69.1 °F 68.0 °F 96% 29.86 in 10.0 mi NNW 4.6 mph - N/A   Partly Cloudy
5:44 AM 69.8 °F 68.0 °F 94% 29.90 in 10.0 mi North 8.1 mph - N/A   Overcast
5:53 AM 69.1 °F 68.0 °F 96% 29.88 in 10.0 mi North 5.8 mph - N/A   Overcast
6:42 AM 69.8 °F 66.2 °F 88% 29.92 in 10.0 mi North 9.2 mph - N/A   Overcast
6:53 AM 68.0 °F 64.0 °F 87% 29.91 in 10.0 mi North 11.5 mph - N/A   Overcast
7:53 AM 68.0 °F 63.0 °F 84% 29.94 in 10.0 mi North 11.5 mph - N/A   Overcast
8:53 AM 68.0 °F 63.0 °F 84% 29.96 in 10.0 mi North 12.7 mph - N/A   Overcast
9:03 AM 66.2 °F 62.6 °F 88% 29.98 in 10.0 mi North 11.5 mph - N/A   Overcast
9:53 AM 66.9 °F 62.1 °F 84% 29.99 in 10.0 mi NE 13.8 mph 20.7 mph N/A   Overcast
10:00 AM 66.2 °F 62.6 °F 88% 30.01 in 10.0 mi NNE 10.4 mph - N/A   Overcast
10:53 AM 66.9 °F 60.1 °F 79% 30.02 in 10.0 mi NNE 9.2 mph - N/A   Overcast
11:02 AM 68.0 °F 59.0 °F 73% 30.04 in 10.0 mi NNE 10.4 mph - N/A   Overcast
11:53 AM 66.9 °F 57.9 °F 73% 30.03 in 10.0 mi NNE 13.8 mph 23.0 mph N/A   Overcast
12:53 PM 68.0 °F 57.9 °F 70% 30.04 in 10.0 mi NNE 10.4 mph 19.6 mph N/A   Overcast
1:53 PM 70.0 °F 57.0 °F 63% 30.04 in 10.0 mi NNE 16.1 mph - N/A   Overcast
2:53 PM 71.1 °F 57.0 °F 61% 30.04 in 10.0 mi NNE 12.7 mph 21.9 mph N/A   Overcast
3:53 PM 71.1 °F 55.9 °F 59% 30.04 in 10.0 mi NE 10.4 mph 18.4 mph N/A   Overcast
4:53 PM 70.0 °F 53.1 °F 55% 30.05 in 10.0 mi NE 8.1 mph 17.3 mph N/A   Overcast
5:53 PM 69.1 °F 53.1 °F 57% 30.06 in 10.0 mi NE 10.4 mph - N/A   Overcast
6:53 PM 68.0 °F 53.1 °F 59% 30.06 in 10.0 mi NE 10.4 mph - N/A   Overcast
7:53 PM 66.0 °F 53.1 °F 63% 30.07 in 10.0 mi ENE 5.8 mph - N/A   Overcast
8:53 PM 66.2 °F 53.6 °F 64% 30.11 in 10.0 mi NNE 5.8 mph - N/A   Overcast
9:53 PM 64.9 °F 55.0 °F 70% 30.10 in 10.0 mi NNE 4.6 mph - N/A   Overcast
10:53 PM 64.9 °F 55.9 °F 73% 30.11 in 10.0 mi NNE 6.9 mph - N/A   Overcast
11:53 PM 64.9 °F 57.9 °F 78% 30.11 in 10.0 mi NNE 6.9 mph - N/A   Overcast